HST
1 20580U 90037B   24150.90440046  .00005403  00000-0  25276-3 0  9990
2 20580  28.4679 107.6005 0002588 195.0318 165.0198 15.17506878674254
ISS (ZARYA)
1 25544U 98067A   24151.24358287  .00023833  00000-0  41437-3 0  9993
2 25544  51.6410  44.2435 0005614 252.0222 256.6947 15.50660859455763
CXO
1 25867U 99040B   24151.99324059  .00000613  00000-0  00000+0 0  9993
2 25867  40.7340 155.5526 8907069 295.1691 359.7812  0.37807376 25653